When you browse on this site, cookies collect data to enhance your experience and personalize the content and advertising you see.
Visit our Privacy Policy to learn more. By continuing to use the site, you agree to this use of cookies and data.
  • In Hungary
  • List of Countries
  • For 7 days
  • Water Temperature
  • Weather Map
  • News
  • Weather Widgets
  • user-avatar
    Login

    Hourly Weather Duabo

    Today, 12 December, Thursday

    Time Temperature Precipitation Wind Pressure Humidity
    00:00 +23°C° 0 mm 0 mps 739 mmHg 94%
    01:00 +23°C° 0 mm 0 mps 739 mmHg 94%
    02:00 +22°C° 0 mm 0 mps 738 mmHg 95%
    03:00 +22°C° 0 mm 0 mps 738 mmHg 95%
    04:00 +22°C° 0 mm 0 mps 739 mmHg 95%
    05:00 +22°C° 0 mm 0 mps 738 mmHg 96%
    06:00 +23°C° 0 mm 0 mps 739 mmHg 89%
    07:00 +25°C° 0 mm 0 mps 740 mmHg 82%
    08:00 +27°C° 0 mm 0 mps 740 mmHg 76%
    09:00 +28°C° 0 mm 0 mps 740 mmHg 68%
    10:00 +32°C° 0 mm 1 mps 740 mmHg 59%
    11:00 +34°C° 0 mm 1 mps 739 mmHg 52%
    12:00 +34°C° 0 mm 1 mps 739 mmHg 49%
    13:00 +34°C° 0 mm 1 mps 738 mmHg 45%
    14:00 +34°C° 0 mm 1 mps 737 mmHg 42%
    15:00 +33°C° 0 mm 1 mps 737 mmHg 47%
    16:00 +32°C° 0 mm 1 mps 738 mmHg 52%
    17:00 +28°C° 0 mm 0 mps 738 mmHg 58%
    18:00 +29°C° 0 mm 1 mps 738 mmHg 64%
    19:00 +28°C° 0 mm 1 mps 739 mmHg 70%
    20:00 +27°C° 0 mm 1 mps 739 mmHg 76%
    21:00 +26°C° 0 mm 1 mps 739 mmHg 81%
    22:00 +26°C° 0 mm 1 mps 739 mmHg 86%
    23:00 +25°C° 0 mm 1 mps 740 mmHg 90%

    Tomorrow, 13 December, Friday

    Time Temperature Precipitation Wind Pressure Humidity
    00:00 +23°C° 0 mm 0 mps 739 mmHg 92%
    01:00 +23°C° 0 mm 0 mps 739 mmHg 93%
    02:00 +22°C° 0 mm 0 mps 739 mmHg 94%
    03:00 +22°C° 0 mm 0 mps 739 mmHg 95%
    04:00 +22°C° 0 mm 0 mps 739 mmHg 95%
    05:00 +22°C° 0 mm 0 mps 740 mmHg 96%
    06:00 +24°C° 0 mm 0 mps 740 mmHg 88%
    07:00 +25°C° 0 mm 0 mps 741 mmHg 79%
    08:00 +29°C° 0 mm 1 mps 741 mmHg 71%
    09:00 +31°C° 0 mm 1 mps 741 mmHg 63%
    10:00 +33°C° 0 mm 1 mps 741 mmHg 55%
    11:00 +35°C° 0 mm 1 mps 740 mmHg 47%
    12:00 +34°C° 0.1 mm 1 mps 739 mmHg 49%
    13:00 +34°C° 0.1 mm 1 mps 738 mmHg 50%
    14:00 +33°C° 0.1 mm 1 mps 738 mmHg 51%
    15:00 +32°C° 0.2 mm 2 mps 738 mmHg 59%
    16:00 +30°C° 0.2 mm 2 mps 738 mmHg 66%
    17:00 +29°C° 0.2 mm 2 mps 738 mmHg 74%
    18:00 +28°C° 0 mm 2 mps 739 mmHg 78%
    19:00 +27°C° 0 mm 1 mps 739 mmHg 83%
    20:00 +26°C° 0 mm 1 mps 740 mmHg 87%
    21:00 +26°C° 0 mm 1 mps 740 mmHg 89%
    22:00 +25°C° 0 mm 1 mps 740 mmHg 91%
    23:00 +25°C° 0 mm 1 mps 740 mmHg 93%

    Day after tomorrow, 14 December, Saturday

    Time Temperature Precipitation Wind Pressure Humidity
    00:00 +23°C° 0 mm 0 mps 740 mmHg 94%
    01:00 +23°C° 0 mm 0 mps 739 mmHg 95%
    02:00 +22°C° 0 mm 0 mps 739 mmHg 96%
    03:00 +22°C° 0 mm 0 mps 739 mmHg 96%
    04:00 +22°C° 0 mm 0 mps 739 mmHg 97%
    05:00 +22°C° 0 mm 0 mps 739 mmHg 97%
    06:00 +24°C° 0 mm 0 mps 740 mmHg 89%
    07:00 +26°C° 0 mm 0 mps 740 mmHg 80%
    08:00 +27°C° 0 mm 0 mps 741 mmHg 72%
    09:00 +31°C° 0 mm 1 mps 740 mmHg 64%
    10:00 +33°C° 0 mm 1 mps 740 mmHg 56%
    11:00 +34°C° 0 mm 1 mps 740 mmHg 48%
    12:00 +34°C° 0.7 mm 1 mps 739 mmHg 52%
    13:00 +33°C° 0.7 mm 1 mps 738 mmHg 55%
    14:00 +32°C° 0.7 mm 1 mps 738 mmHg 59%
    15:00 +31°C° 1.6 mm 2 mps 738 mmHg 67%
    16:00 +29°C° 1.6 mm 2 mps 738 mmHg 76%
    17:00 +27°C° 1.6 mm 2 mps 739 mmHg 84%
    18:00 +27°C° 0.1 mm 2 mps 739 mmHg 87%
    19:00 +26°C° 0.1 mm 1 mps 740 mmHg 89%
    20:00 +26°C° 0.1 mm 1 mps 740 mmHg 91%
    21:00 +25°C° 0 mm 1 mps 740 mmHg 92%
    22:00 +25°C° 0 mm 1 mps 740 mmHg 93%
    23:00 +25°C° 0 mm 1 mps 740 mmHg 94%

    15 December, Sunday

    Time Temperature Precipitation Wind Pressure Humidity
    00:00 +25°C° 0 mm 1 mps 739 mmHg 95%
    01:00 +23°C° 0 mm 0 mps 739 mmHg 96%
    02:00 +22°C° 0 mm 0 mps 738 mmHg 97%
    03:00 +22°C° 0 mm 0 mps 738 mmHg 97%
    04:00 +22°C° 0 mm 0 mps 739 mmHg 98%
    05:00 +22°C° 0 mm 0 mps 739 mmHg 98%
    06:00 +24°C° 0 mm 0 mps 739 mmHg 91%
    07:00 +25°C° 0 mm 0 mps 740 mmHg 84%
    08:00 +27°C° 0 mm 0 mps 740 mmHg 77%
    09:00 +28°C° 0 mm 0 mps 740 mmHg 69%
    10:00 +32°C° 0 mm 1 mps 740 mmHg 61%
    11:00 +34°C° 0 mm 1 mps 740 mmHg 53%
    12:00 +34°C° 0.2 mm 1 mps 739 mmHg 53%
    13:00 +34°C° 0.2 mm 1 mps 738 mmHg 53%
    14:00 +34°C° 0.2 mm 1 mps 737 mmHg 53%
    15:00 +32°C° 0.2 mm 1 mps 738 mmHg 59%
    16:00 +31°C° 0.2 mm 1 mps 738 mmHg 66%
    17:00 +29°C° 0.2 mm 1 mps 738 mmHg 73%
    18:00 +28°C° 0 mm 1 mps 738 mmHg 77%
    19:00 +27°C° 0 mm 1 mps 739 mmHg 81%
    20:00 +26°C° 0 mm 1 mps 739 mmHg 86%
    21:00 +26°C° 0 mm 1 mps 739 mmHg 88%
    22:00 +26°C° 0 mm 1 mps 739 mmHg 90%
    23:00 +23°C° 0 mm 0 mps 739 mmHg 92%

    16 December, Monday

    Time Temperature Precipitation Wind Pressure Humidity
    00:00 +23°C° 0.1 mm 0 mps 739 mmHg 94%
    01:00 +23°C° 0.1 mm 0 mps 738 mmHg 95%
    02:00 +23°C° 0.1 mm 0 mps 738 mmHg 96%
    03:00 +23°C° 0 mm 0 mps 738 mmHg 96%
    04:00 +22°C° 0 mm 0 mps 738 mmHg 97%
    05:00 +22°C° 0 mm 0 mps 738 mmHg 97%
    06:00 +24°C° 0 mm 0 mps 738 mmHg 90%
    07:00 +26°C° 0 mm 0 mps 739 mmHg 82%
    08:00 +27°C° 0 mm 0 mps 739 mmHg 75%
    09:00 +29°C° 0 mm 0 mps 739 mmHg 69%
    10:00 +30°C° 0 mm 0 mps 739 mmHg 63%
    11:00 +31°C° 0 mm 0 mps 738 mmHg 57%
    12:00 +32°C° 0.1 mm 0 mps 738 mmHg 55%
    13:00 +32°C° 0.1 mm 0 mps 737 mmHg 53%
    14:00 +32°C° 0.1 mm 0 mps 737 mmHg 51%
    15:00 +31°C° 0 mm 0 mps 737 mmHg 56%
    16:00 +32°C° 0 mm 1 mps 737 mmHg 60%
    17:00 +30°C° 0 mm 1 mps 737 mmHg 65%
    18:00 +29°C° 0.1 mm 1 mps 737 mmHg 73%
    19:00 +28°C° 0.1 mm 2 mps 738 mmHg 80%
    20:00 +26°C° 0.1 mm 2 mps 738 mmHg 88%
    21:00 +26°C° 0 mm 1 mps 738 mmHg 90%
    22:00 +26°C° 0 mm 1 mps 738 mmHg 92%
    23:00 +25°C° 0 mm 1 mps 738 mmHg 94%

    17 December, Tuesday

    Time Temperature Precipitation Wind Pressure Humidity
    00:00 +25°C° 0.1 mm 1 mps 738 mmHg 95%
    01:00 +25°C° 0.1 mm 1 mps 738 mmHg 95%
    02:00 +23°C° 0.1 mm 0 mps 737 mmHg 96%
    03:00 +23°C° 0.1 mm 0 mps 737 mmHg 97%
    04:00 +22°C° 0.1 mm 0 mps 738 mmHg 97%
    05:00 +22°C° 0.1 mm 0 mps 738 mmHg 97%
    06:00 +24°C° 0.1 mm 0 mps 738 mmHg 90%
    07:00 +27°C° 0.1 mm 1 mps 739 mmHg 82%
    08:00 +29°C° 0.1 mm 1 mps 740 mmHg 74%
    09:00 +31°C° 0.1 mm 1 mps 739 mmHg 67%
    10:00 +32°C° 0.1 mm 1 mps 739 mmHg 60%
    11:00 +34°C° 0.1 mm 1 mps 739 mmHg 53%
    12:00 +34°C° 0.6 mm 1 mps 738 mmHg 54%
    13:00 +33°C° 0.6 mm 1 mps 737 mmHg 55%
    14:00 +33°C° 0.6 mm 1 mps 737 mmHg 56%
    15:00 +32°C° 0.2 mm 1 mps 737 mmHg 62%
    16:00 +30°C° 0.2 mm 2 mps 737 mmHg 69%
    17:00 +29°C° 0.2 mm 2 mps 737 mmHg 75%
    18:00 +28°C° 0.5 mm 2 mps 737 mmHg 80%
    19:00 +27°C° 0.5 mm 2 mps 738 mmHg 86%
    20:00 +26°C° 0.5 mm 2 mps 738 mmHg 92%
    21:00 +25°C° 0 mm 2 mps 738 mmHg 93%
    22:00 +25°C° 0 mm 1 mps 738 mmHg 95%
    23:00 +25°C° 0 mm 1 mps 738 mmHg 96%
    Show more